KN4CCE-13 Weather Reports


Display with metric or nautical units.
time (UTC)temp
F
wind
direction
speed
MPH
gust
MPH
rain 1hr
in
rain 24hr
in
rain mn
in
humidity
%
barometer
mb
20260502221525 55 141 0.0 0.0 0.00 0.08 0.08 84 1011.8
20260502220026 55 141 0.0 0.0 0.00 0.08 0.08 83 1011.8
20260502214525 55 139 0.0 0.0 0.00 0.08 0.08 82 1011.5
20260502213035 55 139 0.0 0.0 0.00 0.08 0.08 82 1011.5
20260502211522 55 139 0.0 0.0 0.00 0.08 0.08 81 1011.5
20260502210024 56 139 0.0 0.0 0.00 0.08 0.08 80 1011.4
20260502204527 56 141 0.0 0.0 0.00 0.08 0.08 82 1011.5
20260502203030 56 139 0.0 0.0 0.00 0.08 0.08 80 1011.5
20260502201534 56 142 0.0 0.0 0.00 0.08 0.08 79 1011.6
20260502200007 57 134 0.0 0.0 0.00 0.08 0.08 79 1011.4
20260502194504 56 144 0.0 0.0 0.00 0.08 0.08 80 1011.7
20260502193005 57 276 0.0 0.0 0.00 0.08 0.08 82 1011.9
20260502191504 56 152 0.0 0.0 0.00 0.08 0.08 81 1012.2
20260502190007 56 146 0.0 0.0 0.00 0.08 0.08 83 1012.2
20260502184509 56 94 0.0 0.0 0.00 0.08 0.08 84 1012.3
20260502183006 56 10 0.0 1.0 0.00 0.08 0.08 84 1012.4
20260502181504 55 126 0.0 0.0 0.00 0.08 0.08 85 1012.5
20260502163005 53 182 0.0 0.0 0.00 0.08 0.08 92 1013.6
20260502161510 53 277 0.0 0.0 0.00 0.08 0.08 92 1013.9
20260502151506 53 232 0.0 0.0 0.02 0.08 0.08 94 1013.6
20260502123017 51 142 0.0 0.0 0.01 0.01 0.01 94 1012.9
20260502121515 51 142 0.0 0.0 0.01 0.01 0.01 94 1012.5
20260502114529 51 142 0.0 0.0 0.00 0.00 0.00 94 1012.6
20260502113012 52 142 0.0 0.0 0.00 0.00 0.00 93 1012.6
20260502111516 52 142 0.0 0.0 0.00 0.00 0.00 93 1012.7
20260502110022 52 142 0.0 0.0 0.00 0.00 0.00 93 1012.9
20260502104524 52 142 0.0 0.0 0.00 0.00 0.00 92 1013.0
20260502103015 52 142 0.0 0.0 0.00 0.00 0.00 92 1012.8
20260502101512 52 142 0.0 0.0 0.00 0.00 0.00 92 1013.0
20260502091520 53 142 0.0 0.0 0.00 0.00 0.00 91 1013.0
20260502071506 52 142 0.0 0.0 0.00 0.00 0.00 93 1011.8
20260502070009 52 142 0.0 0.0 0.00 0.00 0.00 93 1011.8
20260502064508 52 142 0.0 0.0 0.00 0.00 0.00 92 1011.9
20260502063012 53 142 0.0 0.0 0.00 0.00 0.00 92 1012.1
20260502061523 53 142 0.0 0.0 0.00 0.00 0.00 92 1012.2
20260502060016 53 142 0.0 0.0 0.00 0.00 0.00 92 1012.3
20260502054512 53 142 0.0 0.0 0.00 0.00 0.00 92 1012.3
20260502053012 53 142 0.0 0.0 0.00 0.00 0.00 91 1012.5
20260502051507 53 142 0.0 0.0 0.00 0.00 0.00 91 1012.7
20260502050015 53 142 0.0 0.0 0.00 0.00 0.00 91 1012.8
20260502044504 53 142 0.0 0.0 0.00 0.00 0.00 90 1013.0
20260502043012 53 142 0.0 0.0 0.00 0.00 0.00 90 1013.0
20260502041529 53 142 0.0 0.0 0.00 0.00 0.00 90 1013.1
20260502040028 53 142 0.0 0.0 0.00 0.00 0.00 90 1013.2
20260502034509 53 142 0.0 0.0 0.00 0.00 0.00 90 1013.2
20260502033020 53 142 0.0 0.0 0.00 0.00 0.00 89 1013.1
20260502031514 53 142 0.0 0.0 0.00 0.00 0.00 89 1013.2
20260502030018 53 142 0.0 0.0 0.00 0.00 0.00 88 1013.4
20260502024519 54 142 0.0 0.0 0.00 0.00 0.00 87 1013.6
20260502023028 54 142 0.0 0.0 0.00 0.00 0.00 87 1013.4
20260502021509 54 142 0.0 0.0 0.00 0.00 0.00 87 1013.6
20260502020011 54 142 0.0 0.0 0.00 0.00 0.00 87 1013.5
20260502014526 54 142 0.0 0.0 0.00 0.00 0.00 86 1013.5
20260502013021 54 142 0.0 0.0 0.00 0.00 0.00 86 1013.3
20260502011508 54 142 0.0 0.0 0.00 0.00 0.00 87 1013.4
20260502010013 53 142 0.0 0.0 0.00 0.00 0.00 87 1013.0
20260502004517 53 142 0.0 0.0 0.00 0.00 0.00 86 1013.1
20260502003014 54 142 0.0 0.0 0.00 0.00 0.00 85 1012.7
20260502001509 54 142 0.0 0.0 0.00 0.00 0.00 84 1012.6
20260502000008 54 142 0.0 0.0 0.00 0.00 0.00 82 1012.7
20260501234516 55 149 0.0 0.0 0.00 0.00 0.00 80 1012.7
20260501233019 55 248 0.0 0.0 0.00 0.00 0.00 79 1012.8
20260501231519 55 97 0.0 0.0 0.00 0.00 0.00 77 1012.7
20260501230012 56 176 0.0 0.0 0.00 0.00 0.00 76 1012.7
20260501224510 56 94 0.0 0.0 0.00 0.00 0.00 74 1012.7
20260501223008 56 133 0.0 0.0 0.00 0.00 0.00 74 1013.0